Regional Weather Roundup
Issued by NWS

Home | Current Version | Previous Version | Text Only | Print | Product List | Glossary Off
Versions: 1 2 3 4 5 6 7 8 9 10 11 12 13 14 15 16 17 18 19 20 21 22 23 24 25 26 27 28 29 30 31 32 33 34 35 36 37 38 39 40 41 42 43 44 45 46 47 48 49 50

000
ASUS43 KMKX 050600
RWRWI

WISCONSIN REGIONAL WEATHER ROUNDUP
NATIONAL WEATHER SERVICE MILWAUKEE/SULLIVAN WI
100 AM CDT TUE MAY 05 2015

NOTE: "FAIR" INDICATES FEW OR NO CLOUDS BELOW 12,000 FEET WITH NO
SIGNIFICANT WEATHER AND/OR OBSTRUCTIONS TO VISIBILITY.

WIZ001-002-006>008-014>016-023>028-050700-
NORTHWEST WISCONSIN

CITY           SKY/WX    TMP DP  RH WIND       PRES   REMARKS
SUPERIOR ARPT  CLEAR     37  31  79 CALM      30.24S
ASHLAND        CLEAR     38  36  92 SW3       30.26R
6HR MIN TEMP:  38; 6HR MAX TEMP:  63;

HAYWARD        CLEAR     39  33  79 CALM      30.24S
6HR MIN TEMP:  39; 6HR MAX TEMP:  67;

SIREN          CLEAR     37  28  70 CALM      30.23R
CUMBERLAND     CLEAR     48  27  43 NE5       30.23R
RICE LAKE      CLEAR     47  30  51 NE3       30.24R
CHETEK         CLEAR     53  30  40 CALM      30.22R
LADYSMITH      CLEAR     51  22  32 E5        30.25S
EAU CLAIRE     NOT AVBL
MENOMONIE      PTCLDY    51  39  63 CALM      30.20S
NEW RICHMOND   CLEAR     48  36  64 NE3       30.21R
OSCEOLA        CLEAR     45  37  76 CALM      30.24R
$$

WIZ003>005-009-010-017-018-050700-
NORTH CENTRAL WISCONSIN

CITY           SKY/WX    TMP DP  RH WIND       PRES   REMARKS
MANITOWISH WTR CLEAR     36  33  90 CALM      30.26R
ARBOR VITAE    CLEAR     44  30  57 CALM      30.26S
WOODRUFF       CLEAR     44  30  57 CALM      30.26S
RHINELANDER    CLEAR     44  35  70 CALM      30.27S
6HR MIN TEMP:  44; 6HR MAX TEMP:  65;

EAGLE RIVER    CLEAR     40  31  71 CALM      30.27S
LAND O LAKES   CLEAR     34  32  91 CALM      30.28R
PHILLIPS       CLEAR     41  25  53 SE6       30.25R
TOMAHAWK       PTCLDY    40  32  73 CALM      30.27R
MEDFORD        PTCLDY    46  33  62 E7        30.24S
MERRILL        PTCLDY    49  40  70 E3        30.26R
$$

WIZ029-030-035-036-043>047-050700-
CENTRAL WISCONSIN

CITY           SKY/WX    TMP DP  RH WIND       PRES   REMARKS
WAUSAU         PTCLDY    50  38  63 E8        30.24R
6HR MIN TEMP:  50; 6HR MAX TEMP:  67;

MOSINEE        MOCLDY    48  39  71 E7        30.25S
MARSHFIELD     MOCLDY    51  41  68 E9        30.23R
6HR MIN TEMP:  51; 6HR MAX TEMP:  66;

STEVENS POINT  MOCLDY    50  38  62 E8        30.25S
WAUPACA        CLOUDY    53  41  64 CALM      30.25R
WAUTOMA        NOT AVBL
WISC RAPIDS    MOCLDY    53  39  59 E7        30.24R
6HR MIN TEMP:  52; 6HR MAX TEMP:  68;

CAMP DOUGLAS   NOT AVBL
$$

WIZ011>013-019>022-031-037>040-048>050-050700-
NORTHEAST WISCONSIN

CITY           SKY/WX    TMP DP  RH WIND       PRES   REMARKS
ANTIGO         PTCLDY    47  37  67 SE8       30.27R
SHAWANO        MOCLDY    52  39  60 E7        30.27S
OCONTO         MOCLDY    49  37  64 E5        30.27R
STURGEON BAY   MOCLDY    46  32  57 E8        30.29F
6HR MIN TEMP:  46; 6HR MAX TEMP:  54;

GREEN BAY      CLOUDY    51  36  56 NE10      30.25S
6HR MIN TEMP:  50; 6HR MAX TEMP:  61;

MANITOWOC      NOT AVBL
APPLETON       MOCLDY    52  34  50 NE7       30.24S
CLINTONVILLE   MOCLDY    50  39  66 NE6       30.26R
OSHKOSH        CLOUDY    55  35  47 E8        30.23R
6HR MIN TEMP:  54; 6HR MAX TEMP:  63;

$$

WIZ032>034-041-042-053>061-050700-
SOUTHWEST WISCONSIN

CITY           SKY/WX    TMP DP  RH WIND       PRES   REMARKS
LA CROSSE      CLOUDY    57  47  69 CALM      30.17R
6HR MIN TEMP:  55; 6HR MAX TEMP:  69;

SPARTA         CLOUDY    46  40  81 CALM      30.19S
VIROQUA        CLOUDY    56  40  55 E7        30.18R
BOSCOBEL       CLOUDY    64  41  42 E6        30.16R
6HR MIN TEMP:  63; 6HR MAX TEMP:  73;

PRAIRIE DU CHI CLOUDY    64  54  68 E13       30.14S
PLATTEVILLE    CLOUDY    56  50  80 E14       30.16S
$$

WIZ056-057-062-063-064-067-068-050700-
SOUTH CENTRAL WISCONSIN

CITY           SKY/WX    TMP DP  RH WIND       PRES   REMARKS
REEDSBURG      CLOUDY    58  37  45 NE6       30.19R
BARABOO/DELLS  CLOUDY    56  36  47 E7        30.20S
LONE ROCK      NOT AVBL
MINERAL POINT  CLOUDY    59  37  44 E9        30.17F
MADISON        CLOUDY    58  37  45 E7        30.19S
6HR MIN TEMP:  58; 6HR MAX TEMP:  69;

MIDDLETON      CLOUDY    60  36  40 E5        30.20R
WATERTOWN      CLOUDY    55  38  52 E8        30.20S
MONROE         DRIZZLE   54  45  71 SE5       30.19S
JANESVILLE     LGT RAIN  55  37  50 SE5       30.20R
$$

WIZ051-052-058>065-066-070>072-050700-
SOUTHEAST WISCONSIN

CITY           SKY/WX    TMP DP  RH WIND       PRES   REMARKS
MILWAUKEE      CLOUDY    51  34  52 N3        30.21S
6HR MIN TEMP:  50; 6HR MAX TEMP:  55;

WAUKESHA       CLOUDY    50  34  53 NE5       30.22S
MILWAUKEE/TIMM CLOUDY    52  32  46 CALM      30.23R
RACINE         MOCLDY    50  36  58 N3        30.22R
6HR MIN TEMP:  49; 6HR MAX TEMP:  54;

BURLINGTON     CLOUDY    50  39  67 CALM      30.21R
KENOSHA        CLOUDY    51  38  60 NE6       30.19F
6HR MIN TEMP:  48; 6HR MAX TEMP:  58;

FOND DU LAC    CLOUDY    53  34  48 E7        30.23R
6HR MIN TEMP:  53; 6HR MAX TEMP:  64;

SHEBOYGAN      CLOUDY    47  36  65 NE6       30.23R
6HR MIN TEMP:  44; 6HR MAX TEMP:  54;

WEST BEND      CLOUDY    50  34  53 CALM      30.23R
JUNEAU         CLOUDY    53  37  55 E5        30.22S
$$

LSZ147-162-050700-
LAKE SUPERIOR

STATION/POSITION TIME  TEMP    WIND        PRES    WAVE
                       AIR SEA DIR/SP/G            HT/PER
                 (UTC) (F)     (DEG/KT/KT) (MB)    (FT/S)
W MID LAKE BUOY  0450   41 35  110/  2/  2 1025.0R   0
DEVILS ISLAND    0500   47      60/  6/  7 1024.9R
PORT WING        0500   45     330/  4/  5 1024.0R
SAXON HARBOR     0500   42        CALM     1023.7R
$$

LMZ867-665-643>646-050700-
LAKE MICHIGAN

STATION/POSITION TIME  TEMP    WIND        PRES    WAVE
                       AIR SEA DIR/SP/G            HT/PER
                 (UTC) (F)     (DEG/KT/KT) (MB)    (FT/S)
CHAMBERS ISLAND  0500   49      80/  7/ 10 1025.4R
NORTHPORT PIER   0500   45      CALM  /  1 1025.1S
SISTER BAY       0517   45        CALM       N/A
KEWAUNEE LAKESHO 0500   47      30/  8/ 11 1023.5R
SHEBOYGAN LAKESH 0500   47      10/  9/ 10 1023.7S
PORT WASHINGTON  0540   53      10/  3/  4 1024.0R
ATWATER BUOY     0500   48     360/  6/  8 1024.1F
MILWAUKEE LAKESH 0500   53      20/  6/  7   N/A
KENOSHA   LAKESH 0500   50     360/  7/  8 1022.7R
$$

TC  - TEMPERATURE IN CELSIUS
VSB - VISIBILITY IN STATUTE MILES
WCI - WIND CHILL INDEX
HX  - HEAT INDEX




USA.gov is the U.S. government's official web portal to all federal, state and local government web resources and services.